STARLINK-2105 (47385 NORAD) Tracking and Keplerian Element Data
This shows tracking and keplerian element data for the satellite.
Feedback or suggestion? Click here.
Element | Value |
Catalog | 47385 |
Name | STARLINK-2105 |
Epoch Orbit | 182 |
Epoch Day | 99.91667824 |
Epoch Year | 2021 |
RAAN | 181.7203 |
Inclination | 53.0543 |
Eccentricity | 0.0004055 |
Argument of Perigee | 3.1545 |
Mean Anonmoly | 57.6811 |
Mean Motion | 15.6274795 |
Decay Rate | -0.00049017 |
L1 | 1 47385U 21005AN 21099.91667824 -.00049017 00000-0 -53257-3 0 9997 |
L2 | 2 47385 53.0543 181.7203 0004055 3.1545 57.6811 15.62747950 1828 |
Live tracking and technical data element details for STARLINK-2105 (NORAD 47385). STARLINK-2105 can be tracked NOW for your location showing map with azimuth and elevation plus other details from your city location.
Track the satellite on the map from your city or location and see movement details for azimuth, elevation, latitude, longitude, range, height, and movement on the map or in text.
IsCatalogInMostPopularTable: catalog: 47385, numindb: 16
Update: records affected: 1
GetName: 47385 STARLINK-2105
Hit Count: updated at: Sat, 10 Apr 2021 20:04:10 GMT